Location: Monfort
(47.1967°N, 0.2115°W)
Time: 10:55:29
(UTC+00:00)

USA 215 - Pass Details

Date: 24 October 2020
Orbit: 1102 x 1106 km, 123.0° (Epoch: 23 November)

Event Time Altitude Azimuth Distance (km) Brightness Sun altitude
Exits shadow 20:04:45 83° 311° (NW) 1,115 3.2 -32.3°
Drops below altitude 10° 20:11:02 10° 307° (NW) 2,966 6.3 -33.3°
Sets 20:13:31 0° 307° (NW) 3,926 7.1 -33.7°
